This is the latest recevied weather packets stored in our database for station/object OK1KZE-6. If no packets are shown the sender has not sent any weather packets the latest 1 day(s).
| Time | Temp. | Humidity | Pressure | Rain* | Wind** | Luminosity | Snow |
|---|---|---|---|---|---|---|---|
| 1777987507 | 22.22° C | 43% | 1008.9 hPa | - | 8.05 m/s, 93° | - | - |
| 1777987207 | 22.22° C | 43% | 1009.2 hPa | - | 8.05 m/s, 93° | - | - |
| 1777986908 | 21.67° C | 45% | 1009.1 hPa | - | 7.6 m/s, 89° | - | - |
| 1777986609 | 22.22° C | 45% | 1008.8 hPa | - | 8.05 m/s, 80° | - | - |
| 1777986307 | 22.78° C | 45% | 1009.2 hPa | - | 7.6 m/s, 88° | - | - |
| 1777986008 | 22.22° C | 46% | 1009.2 hPa | - | 7.15 m/s, 75° | - | - |
| 1777985708 | 21.67° C | 46% | 1009.3 hPa | - | 6.71 m/s, 98° | - | - |
| 1777985408 | 22.22° C | 47% | 1009.6 hPa | - | 8.94 m/s, 92° | - | - |
| 1777985108 | 22.22° C | 47% | 1009.4 hPa | - | 8.49 m/s, 88° | - | - |
| 1777984808 | 21.67° C | 48% | 1009.4 hPa | - | 8.05 m/s, 95° | - | - |
| 1777984508 | 22.22° C | 47% | 1009.3 hPa | - | 7.15 m/s, 96° | - | - |
| 1777984208 | 22.22° C | 48% | 1009.5 hPa | - | 7.6 m/s, 83° | - | - |
| 1777983908 | 22.22° C | 49% | 1009.3 hPa | - | 7.15 m/s, 74° | - | - |
| 1777983607 | 22.22° C | 50% | 1009.4 hPa | - | 9.39 m/s, 94° | - | - |
| 1777983307 | 21.67° C | 49% | 1009.6 hPa | - | 9.83 m/s, 89° | - | - |
| 1777983015 | -17.78° C | 100% | 1009.6 hPa | - | 0 m/s | - | - |
| 1777982708 | -17.78° C | 100% | 1009.7 hPa | - | 0 m/s | - | - |
| 1777982407 | -1.11° C | 100% | 1009.8 hPa | - | 0 m/s | - | - |
| 1777982107 | -1.11° C | 100% | 1009.7 hPa | - | 0 m/s | - | - |
| 1777981807 | -1.11° C | 100% | 1009.8 hPa | - | 0 m/s | - | - |
| 1777981507 | -1.11° C | 100% | 1009.7 hPa | - | 0 m/s | - | - |
| 1777980909 | -1.11° C | 100% | 1010 hPa | - | 0 m/s | - | - |
| 1777980608 | -1.11° C | 100% | 1009.9 hPa | - | 0 m/s | - | - |
| 1777980309 | -1.11° C | 100% | 1010.1 hPa | - | 0 m/s | - | - |
| 1777980008 | -1.11° C | 100% | 1010.1 hPa | - | 0 m/s | - | - |
* Rain since midnight (hover to see other rain measurements)
** Current wind speed in m/s (hover to see current wind gust speed)